Date String (YYYY-MM-DD hh:mm:ss) UTC,Instrument flags,absolute air pressure of the measurement (hPa),sample flow rate (lpm),inlet stack bypass flow (lpm),air temperature of the measurement (°C),ambient temperature measured by the external sensor (°C),aerosol sample conditioner tube jacket temperature (°C),OPC LED temperature (°C),internal box temperature (°C),relative humidity of the measurement (%),span deviation,mass concentration of particles derived from Lorenz-Mie calculation of OPC scattering (μg/m³),mass concentration of particles derived from Lorenz-Mie calculation of OPC scattering (μg/m³),mass concentration of particles derived from Lorenz-Mie calculation of OPC scattering (μg/m³)
DateTimeUTC,F1_M11,P_M11,Q1_M11,Q2_M11,T1_M11,T2_M11,T3_M11,T4_M11,T5_M11,U1_M11,ZSPAN_M11,X0_M11,X2_M11,X1_M11
2023-06-11 00:00:00,SystemResetWarning,0828.7,5.00,000.00,029.5,028.1,000.0,038.0,031.1,22.9,0000.0,0006.97,0003.20,0002.28
2023-06-11 00:01:00,SystemResetWarning,0828.7,5.00,000.00,029.6,028.2,000.0,038.0,031.2,22.7,0000.0,0007.26,0003.23,0002.29
2023-06-11 00:02:00,SystemResetWarning,0828.7,5.00,000.00,029.6,028.3,000.0,038.0,031.2,22.0,0000.0,0007.51,0003.24,0002.28
2023-06-11 00:03:00,SystemResetWarning,0828.7,5.00,000.00,029.6,028.3,000.0,038.0,031.2,21.0,0000.0,0007.82,0003.28,0002.29
2023-06-11 00:04:00,SystemResetWarning,0828.7,5.00,000.00,029.7,028.4,000.0,038.1,031.3,22.0,0000.0,0008.14,0003.29,0002.30
2023-06-11 00:05:00,SystemResetWarning,0828.7,5.00,000.00,029.7,028.4,000.0,038.1,031.3,23.0,0000.0,0008.12,0003.29,0002.31
2023-06-11 00:06:00,SystemResetWarning,0828.7,4.99,000.00,029.7,027.7,000.0,038.1,031.3,24.0,0000.0,0007.81,0003.34,0002.34
2023-06-11 00:07:00,SystemResetWarning,0828.6,5.00,000.00,029.7,025.6,000.0,038.0,031.3,24.1,0000.0,0007.93,0003.39,0002.36
2023-06-11 00:08:00,SystemResetWarning,0828.6,5.01,000.00,029.7,025.2,000.0,038.0,031.2,22.6,0000.0,0007.94,0003.41,0002.38
2023-06-11 00:09:00,SystemResetWarning,0828.6,5.01,000.00,029.6,025.4,000.0,038.0,031.0,22.6,0000.0,0007.99,0003.46,0002.42
2023-06-11 00:10:00,SystemResetWarning,0828.6,4.99,000.00,029.5,025.8,000.0,038.0,030.9,23.2,0000.0,0008.38,0003.48,0002.45
2023-06-11 00:11:00,SystemResetWarning,0828.6,4.99,000.00,029.5,026.2,000.0,038.0,030.9,24.2,0000.0,0009.23,0003.52,0002.50
2023-06-11 00:12:00,SystemResetWarning,0828.6,5.00,000.00,029.5,026.6,000.0,038.0,030.9,25.5,0000.0,0009.51,0003.56,0002.54
2023-06-11 00:13:00,SystemResetWarning,0828.6,5.01,000.00,029.5,026.9,000.0,038.0,031.0,24.5,0000.0,0009.40,0003.59,0002.57
2023-06-11 00:14:00,SystemResetWarning,0828.6,5.02,000.00,029.5,027.2,000.0,038.0,031.0,24.8,0000.0,0009.22,0003.57,0002.59
2023-06-11 00:15:00,SystemResetWarning,0828.6,4.99,000.00,029.5,027.5,000.0,038.0,031.0,24.4,0000.0,0009.28,0003.58,0002.61
2023-06-11 00:16:00,SystemResetWarning,0828.6,4.99,000.00,029.5,027.7,000.0,038.0,031.0,24.1,0000.0,0009.49,0003.61,0002.64
2023-06-11 00:17:00,SystemResetWarning,0828.6,5.00,000.00,029.5,027.8,000.0,038.0,031.1,24.6,0000.0,0009.31,0003.62,0002.68
2023-06-11 00:18:00,SystemResetWarning,0828.6,5.00,000.00,029.6,028.0,000.0,038.0,031.1,23.7,0000.0,0009.27,0003.63,0002.71
2023-06-11 00:19:00,SystemResetWarning,0828.6,5.00,000.00,029.6,028.1,000.0,038.1,031.2,23.1,0000.0,0009.37,0003.64,0002.72
2023-06-11 00:20:00,SystemResetWarning,0828.6,5.00,000.00,029.6,028.2,000.0,038.1,031.2,23.9,0000.0,0009.51,0003.67,0002.73
2023-06-11 00:21:00,SystemResetWarning,0828.6,5.00,000.00,029.6,028.3,000.0,038.1,031.3,24.5,0000.0,0010.15,0003.69,0002.74
2023-06-11 00:22:00,SystemResetWarning,0828.6,5.00,000.00,029.7,028.3,000.0,038.1,031.3,24.4,0000.0,0009.52,0003.73,0002.75
2023-06-11 00:23:00,SystemResetWarning,0828.6,4.98,000.00,029.7,027.8,000.0,038.1,031.3,24.7,0000.0,0009.37,0003.72,0002.74
2023-06-11 00:24:00,SystemResetWarning,0828.6,4.99,000.00,029.7,025.7,000.0,038.1,031.3,25.1,0000.0,0009.68,0003.73,0002.74
2023-06-11 00:25:00,SystemResetWarning,0828.6,5.01,000.00,029.7,025.2,000.0,038.0,031.2,25.2,0000.0,0010.67,0003.77,0002.77
2023-06-11 00:26:00,SystemResetWarning,0828.5,5.01,000.00,029.6,025.4,000.0,038.0,030.9,25.0,0000.0,0010.97,0003.81,0002.81
2023-06-11 00:27:00,SystemResetWarning,0828.6,5.00,000.00,029.5,025.7,000.0,038.0,030.8,25.7,0000.0,0011.48,0003.91,0002.87
2023-06-11 00:28:00,SystemResetWarning,0828.5,5.01,000.00,029.5,026.1,000.0,038.0,030.8,25.1,0000.0,0012.45,0004.00,0002.90
2023-06-11 00:29:00,SystemResetWarning,0828.6,5.00,000.00,029.4,026.5,000.0,038.0,030.9,24.7,0000.0,0012.92,0004.02,0002.92
2023-06-11 00:30:00,SystemResetWarning,0828.6,5.00,000.00,029.4,026.9,000.0,038.0,030.9,25.6,0000.0,0014.29,0004.01,0002.94
2023-06-11 00:31:00,SystemResetWarning,0828.5,5.00,000.00,029.5,027.2,000.0,038.0,031.0,26.0,0000.0,0015.26,0004.06,0002.95
2023-06-11 00:32:00,SystemResetWarning,0828.6,4.99,000.00,029.5,027.4,000.0,038.0,031.0,25.8,0000.0,0015.43,0004.13,0002.99
2023-06-11 00:33:00,SystemResetWarning,0828.5,4.99,000.00,029.5,027.6,000.0,038.0,031.0,25.6,0000.0,0015.50,0004.19,0003.00
2023-06-11 00:34:00,SystemResetWarning,0828.5,5.00,000.00,029.5,027.8,000.0,038.0,031.1,26.6,0000.0,0015.27,0004.23,0003.03
2023-06-11 00:35:00,SystemResetWarning,0828.5,5.01,000.00,029.5,027.9,000.0,038.0,031.1,26.4,0000.0,0015.53,0004.28,0003.06
2023-06-11 00:36:00,SystemResetWarning,0828.5,5.00,000.00,029.6,028.1,000.0,038.0,031.2,26.5,0000.0,0014.96,0004.27,0003.09
2023-06-11 00:37:00,SystemResetWarning,0828.4,5.00,000.00,029.6,028.2,000.0,038.1,031.2,26.2,0000.0,0014.57,0004.29,0003.09
2023-06-11 00:38:00,SystemResetWarning,0828.4,5.00,000.00,029.6,028.3,000.0,038.1,031.2,26.3,0000.0,0014.48,0004.25,0003.07
2023-06-11 00:39:00,SystemResetWarning,0828.5,5.00,000.00,029.7,028.3,000.0,038.1,031.3,26.1,0000.0,0013.95,0004.17,0003.07
2023-06-11 00:40:00,SystemResetWarning,0828.4,4.99,000.00,029.7,028.4,000.0,038.1,031.3,26.2,0000.0,0013.40,0004.16,0003.07
2023-06-11 00:41:00,SystemResetWarning,0828.5,4.99,000.00,029.7,027.0,000.0,038.1,031.3,26.0,0000.0,0012.10,0004.19,0003.10
2023-06-11 00:42:00,SystemResetWarning,0828.4,5.01,000.00,029.7,025.3,000.0,038.1,031.2,26.1,0000.0,0011.29,0004.16,0003.10
2023-06-11 00:43:00,SystemResetWarning,0828.4,5.01,000.00,029.6,025.2,000.0,038.0,031.1,26.4,0000.0,0010.81,0004.15,0003.10
2023-06-11 00:44:00,SystemResetWarning,0828.4,5.01,000.00,029.5,025.5,000.0,038.0,030.9,26.1,0000.0,0011.28,0004.08,0003.11
2023-06-11 00:45:00,SystemResetWarning,0828.4,4.99,000.00,029.5,025.9,000.0,038.0,030.8,26.5,0000.0,0011.24,0004.06,0003.12
2023-06-11 00:46:00,SystemResetWarning,0828.4,5.00,000.00,029.4,026.3,000.0,038.0,030.9,26.9,0000.0,0010.88,0004.06,0003.13
2023-06-11 00:47:00,SystemResetWarning,0828.4,5.01,000.00,029.4,026.6,000.0,038.0,030.9,26.9,0000.0,0010.57,0004.07,0003.14
2023-06-11 00:48:00,SystemResetWarning,0828.4,4.99,000.00,029.4,027.0,000.0,038.0,031.0,26.6,0000.0,0010.34,0004.06,0003.14
2023-06-11 00:49:00,SystemResetWarning,0828.4,5.00,000.00,029.5,027.2,000.0,038.0,031.0,27.0,0000.0,0010.41,0003.99,0003.14
2023-06-11 00:50:00,SystemResetWarning,0828.4,5.00,000.00,029.5,027.5,000.0,038.0,031.0,27.7,0000.0,0009.87,0003.98,0003.13
2023-06-11 00:51:00,SystemResetWarning,0828.4,5.00,000.00,029.5,027.7,000.0,038.0,031.1,27.8,0000.0,0009.98,0004.02,0003.14
2023-06-11 00:52:00,SystemResetWarning,0828.4,5.00,000.00,029.5,027.8,000.0,038.0,031.1,26.9,0000.0,0010.38,0004.04,0003.13
2023-06-11 00:53:00,SystemResetWarning,0828.4,5.01,000.00,029.5,028.0,000.0,038.0,031.1,27.3,0000.0,0010.15,0004.05,0003.13
2023-06-11 00:54:00,SystemResetWarning,0828.5,4.98,000.00,029.6,028.1,000.0,038.1,031.2,27.0,0000.0,0010.49,0004.01,0003.13
2023-06-11 00:55:00,SystemResetWarning,0828.5,5.00,000.00,029.6,028.2,000.0,038.1,031.2,27.6,0000.0,0009.95,0003.99,0003.14
2023-06-11 00:56:00,SystemResetWarning,0828.5,5.01,000.00,029.6,028.3,000.0,038.1,031.3,27.9,0000.0,0010.12,0003.99,0003.13
2023-06-11 00:57:00,SystemResetWarning,0828.5,5.01,000.00,029.7,028.3,000.0,038.1,031.3,27.8,0000.0,0010.25,0003.98,0003.13
2023-06-11 00:58:00,SystemResetWarning,0828.6,5.00,000.00,029.7,028.4,000.0,038.1,031.3,27.5,0000.0,0010.15,0003.95,0003.13
2023-06-11 00:59:00,SystemResetWarning,0828.6,4.99,000.00,029.7,028.4,000.0,038.1,031.3,27.5,0000.0,0010.41,0003.91,0003.14
